| time (UTC) | temp C | wind direction | speed KPH | gust KPH | rain 1hr cm | rain 24hr cm | rain mn cm | humidity % | barometer mb |
| 20260902050521 | 23 | 0 | 0.0 | 0.0 | 0.00 | 0.53 | 0.00 | 100 | 1014.7 |
| 20260902050036 | 23 | 0 | 0.0 | 0.0 | 0.00 | 0.53 | 0.00 | 100 | 1014.6 |
| 20260902045518 | 23 | 0 | 0.0 | 0.0 | 0.00 | 0.53 | 0.00 | 100 | 1014.7 |
| 20260902045019 | 23 | 0 | 0.0 | 0.0 | 0.00 | 0.53 | 0.00 | 100 | 1014.8 |
| 20260902044545 | 23 | 0 | 0.0 | 0.0 | 0.00 | 0.53 | 0.00 | 100 | 1014.8 |
| 20260902044022 | 23 | 0 | 0.0 | 0.0 | 0.00 | 0.53 | 0.00 | 100 | 1014.8 |
| 20260902043520 | 23 | 0 | 0.0 | 0.0 | 0.00 | 0.53 | 0.00 | 100 | 1014.9 |
| 20260902043041 | 23 | 0 | 0.0 | 0.0 | 0.00 | 0.53 | 0.00 | 100 | 1014.9 |
| 20260902042519 | 23 | 0 | 0.0 | 0.0 | 0.00 | 0.53 | 0.00 | 100 | 1014.9 |
| 20260902042017 | 23 | 0 | 0.0 | 0.0 | 0.00 | 0.53 | 0.00 | 100 | 1015.0 |
| 20260902041539 | 23 | 0 | 0.0 | 0.0 | 0.00 | 0.53 | 0.00 | 100 | 1015.0 |
| 20260902041020 | 23 | 0 | 0.0 | 0.0 | 0.00 | 0.53 | 0.00 | 100 | 1015.0 |
| 20260902040521 | 23 | 0 | 0.0 | 0.0 | 0.00 | 0.53 | 0.00 | 100 | 1015.1 |
| 20260902040037 | 23 | 0 | 0.0 | 0.0 | 0.00 | 0.53 | 0.00 | 100 | 1015.1 |
| 20260902035518 | 23 | 0 | 0.0 | 0.0 | 0.00 | 0.53 | 0.53 | 100 | 1015.2 |
| 20260902035019 | 23 | 0 | 0.0 | 0.0 | 0.00 | 0.53 | 0.53 | 100 | 1015.2 |
| 20260902034537 | 23 | 0 | 0.0 | 0.0 | 0.00 | 0.53 | 0.53 | 100 | 1015.2 |
| 20260902034019 | 23 | 0 | 0.0 | 0.0 | 0.00 | 0.53 | 0.53 | 100 | 1015.3 |
| 20260902033520 | 23 | 0 | 0.0 | 0.0 | 0.00 | 0.53 | 0.53 | 100 | 1015.4 |
| 20260902033037 | 23 | 0 | 0.0 | 0.0 | 0.00 | 0.53 | 0.53 | 100 | 1015.4 |
| 20260902032521 | 24 | 0 | 0.0 | 0.0 | 0.00 | 0.53 | 0.53 | 100 | 1015.5 |
| 20260902032024 | 24 | 0 | 0.0 | 0.0 | 0.00 | 0.53 | 0.53 | 100 | 1015.5 |
| 20260902031542 | 24 | 0 | 0.0 | 0.0 | 0.00 | 0.53 | 0.53 | 100 | 1015.5 |
| 20260902031020 | 24 | 0 | 0.0 | 0.0 | 0.00 | 0.53 | 0.53 | 100 | 1015.5 |
| 20260902030521 | 24 | 0 | 0.0 | 0.0 | 0.00 | 0.53 | 0.53 | 100 | 1015.4 |
| 20260902030038 | 24 | 0 | 0.0 | 0.0 | 0.00 | 0.53 | 0.53 | 100 | 1015.5 |
| 20260902025521 | 24 | 0 | 0.0 | 0.0 | 0.00 | 0.53 | 0.53 | 100 | 1015.6 |
| 20260902025020 | 24 | 0 | 0.0 | 0.0 | 0.00 | 0.53 | 0.53 | 100 | 1015.6 |
| 20260902024537 | 24 | 0 | 0.0 | 0.0 | 0.00 | 0.53 | 0.53 | 100 | 1015.6 |
| 20260902024019 | 24 | 0 | 0.0 | 0.0 | 0.00 | 0.53 | 0.53 | 100 | 1015.8 |
| 20260902023519 | 24 | 0 | 0.0 | 0.0 | 0.00 | 0.53 | 0.53 | 100 | 1015.7 |
| 20260902023040 | 24 | 0 | 0.0 | 0.0 | 0.00 | 0.53 | 0.53 | 100 | 1015.8 |
| 20260902022520 | 24 | 0 | 0.0 | 0.0 | 0.00 | 0.53 | 0.53 | 100 | 1015.8 |
| 20260902022019 | 24 | 0 | 0.0 | 0.0 | 0.00 | 0.53 | 0.53 | 100 | 1015.8 |
| 20260902021543 | 24 | 0 | 0.0 | 0.0 | 0.00 | 0.53 | 0.53 | 100 | 1015.7 |
| 20260902021025 | 24 | 0 | 0.0 | 0.0 | 0.00 | 0.53 | 0.53 | 100 | 1015.8 |
| 20260902020525 | 24 | 0 | 0.0 | 0.0 | 0.00 | 0.53 | 0.53 | 100 | 1015.8 |
| 20260902020043 | 25 | 0 | 0.0 | 0.0 | 0.00 | 0.53 | 0.53 | 99 | 1015.7 |
| 20260902015518 | 25 | 0 | 0.0 | 0.0 | 0.00 | 0.53 | 0.53 | 99 | 1015.7 |
| 20260902015020 | 25 | 0 | 0.0 | 0.0 | 0.00 | 0.53 | 0.53 | 99 | 1015.7 |
| 20260902014548 | 25 | 0 | 0.0 | 0.0 | 0.00 | 0.53 | 0.53 | 98 | 1015.8 |
| 20260902014019 | 25 | 0 | 0.0 | 0.0 | 0.00 | 0.53 | 0.53 | 99 | 1015.7 |
| 20260902013519 | 25 | 0 | 0.0 | 0.0 | 0.00 | 0.53 | 0.53 | 99 | 1015.6 |
| 20260902013037 | 25 | 0 | 0.0 | 0.0 | 0.00 | 0.53 | 0.53 | 98 | 1015.6 |
| 20260902012518 | 25 | 0 | 0.0 | 0.0 | 0.00 | 0.53 | 0.53 | 98 | 1015.5 |
| 20260902012021 | 25 | 0 | 0.0 | 0.0 | 0.00 | 0.53 | 0.53 | 98 | 1015.4 |
| 20260902011537 | 25 | 0 | 0.0 | 0.0 | 0.00 | 0.53 | 0.53 | 98 | 1015.3 |
| 20260902011024 | 25 | 0 | 0.0 | 0.0 | 0.00 | 0.53 | 0.53 | 98 | 1015.3 |
| 20260902010521 | 25 | 0 | 0.0 | 0.0 | 0.00 | 0.53 | 0.53 | 97 | 1015.2 |
| 20260902010034 | 25 | 0 | 0.0 | 0.0 | 0.00 | 0.53 | 0.53 | 97 | 1015.2 |
| 20260902005519 | 25 | 0 | 0.0 | 0.0 | 0.00 | 0.53 | 0.53 | 97 | 1015.2 |
| 20260902005020 | 25 | 0 | 0.0 | 0.0 | 0.00 | 0.53 | 0.53 | 96 | 1015.1 |
| 20260902004542 | 26 | 0 | 0.0 | 0.0 | 0.00 | 0.53 | 0.53 | 96 | 1015.1 |
| 20260902004022 | 26 | 0 | 0.0 | 0.0 | 0.00 | 0.53 | 0.53 | 96 | 1015.2 |
| 20260902003522 | 26 | 0 | 0.0 | 0.0 | 0.00 | 0.53 | 0.53 | 96 | 1015.2 |
| 20260902003040 | 26 | 0 | 0.0 | 0.0 | 0.00 | 0.53 | 0.53 | 95 | 1015.3 |
| 20260902002520 | 26 | 0 | 0.0 | 0.0 | 0.00 | 0.53 | 0.53 | 95 | 1015.4 |
| 20260902002019 | 26 | 0 | 0.0 | 0.0 | 0.00 | 0.53 | 0.53 | 94 | 1015.2 |
| 20260902001539 | 26 | 0 | 0.0 | 0.0 | 0.00 | 0.53 | 0.53 | 94 | 1015.2 |
| 20260902001020 | 26 | 0 | 0.0 | 1.6 | 0.00 | 0.53 | 0.53 | 93 | 1015.3 |
| 20260902000521 | 27 | 0 | 0.0 | 1.6 | 0.00 | 0.53 | 0.53 | 93 | 1015.2 |
| 20260902000044 | 27 | 0 | 0.0 | 4.8 | 0.00 | 0.53 | 0.53 | 93 | 1015.2 |
| 20260901235524 | 27 | 24 | 1.6 | 4.8 | 0.00 | 0.53 | 0.53 | 92 | 1015.3 |
| 20260901235020 | 27 | 0 | 0.0 | 0.0 | 0.00 | 0.53 | 0.53 | 92 | 1015.3 |
| 20260901234559 | 27 | 0 | 0.0 | 0.0 | 0.00 | 0.53 | 0.53 | 92 | 1015.4 |
| 20260901234020 | 27 | 0 | 0.0 | 0.0 | 0.00 | 0.53 | 0.53 | 91 | 1015.4 |
| 20260901233517 | 27 | 0 | 0.0 | 0.0 | 0.00 | 0.53 | 0.53 | 91 | 1015.3 |
| 20260901233049 | 27 | 0 | 0.0 | 0.0 | 0.00 | 0.53 | 0.53 | 90 | 1015.3 |
| 20260901232516 | 27 | 0 | 0.0 | 0.0 | 0.00 | 0.53 | 0.53 | 90 | 1015.1 |
| 20260901232022 | 27 | 0 | 0.0 | 1.6 | 0.00 | 0.53 | 0.53 | 89 | 1015.1 |
| 20260901231536 | 27 | 0 | 0.0 | 4.8 | 0.00 | 0.53 | 0.53 | 89 | 1015.1 |
| 20260901231019 | 27 | 0 | 0.0 | 4.8 | 0.00 | 0.53 | 0.53 | 89 | 1015.1 |
| 20260901230521 | 27 | 345 | 0.0 | 4.8 | 0.00 | 0.53 | 0.53 | 88 | 1015.1 |
| 20260901230037 | 27 | 0 | 0.0 | 3.2 | 0.00 | 0.53 | 0.53 | 88 | 1015.1 |
| 20260901225525 | 27 | 8 | 0.0 | 3.2 | 0.00 | 0.53 | 0.53 | 87 | 1015.1 |
| 20260901225021 | 28 | 0 | 0.0 | 1.6 | 0.00 | 0.53 | 0.53 | 87 | 1015.1 |
| 20260901224540 | 28 | 0 | 0.0 | 4.8 | 0.00 | 0.53 | 0.53 | 87 | 1015.1 |
| 20260901224020 | 28 | 52 | 0.0 | 6.4 | 0.00 | 0.53 | 0.53 | 87 | 1015.1 |
| 20260901223521 | 28 | 0 | 0.0 | 8.0 | 0.00 | 0.53 | 0.53 | 86 | 1015.0 |
| 20260901223037 | 28 | 343 | 1.6 | 11.3 | 0.00 | 0.53 | 0.53 | 85 | 1015.0 |
| 20260901222521 | 28 | 8 | 1.6 | 11.3 | 0.00 | 0.53 | 0.53 | 85 | 1014.9 |
| 20260901222019 | 28 | 335 | 1.6 | 9.7 | 0.00 | 0.53 | 0.53 | 85 | 1014.8 |
| 20260901221601 | 28 | 0 | 0.0 | 8.0 | 0.00 | 0.53 | 0.53 | 88 | 1014.7 |
| 20260901221020 | 28 | 0 | 0.0 | 8.0 | 0.00 | 0.53 | 0.53 | 88 | 1014.5 |
| 20260901220519 | 28 | 12 | 1.6 | 8.0 | 0.00 | 0.53 | 0.53 | 88 | 1014.5 |
| 20260901220042 | 28 | 356 | 1.6 | 9.7 | 0.00 | 0.53 | 0.53 | 88 | 1014.5 |
| 20260901215519 | 28 | 4 | 0.0 | 9.7 | 0.00 | 0.53 | 0.53 | 88 | 1014.4 |
| 20260901215022 | 28 | 0 | 1.6 | 8.0 | 0.00 | 0.53 | 0.53 | 87 | 1014.3 |
| 20260901214538 | 29 | 0 | 0.0 | 11.3 | 0.00 | 0.53 | 0.53 | 88 | 1014.2 |
| 20260901214025 | 29 | 0 | 1.6 | 11.3 | 0.00 | 0.53 | 0.53 | 87 | 1014.3 |
| 20260901213520 | 29 | 295 | 1.6 | 8.0 | 0.00 | 0.53 | 0.53 | 87 | 1014.4 |
| 20260901213039 | 29 | 41 | 1.6 | 8.0 | 0.00 | 0.53 | 0.53 | 86 | 1014.4 |
| 20260901212519 | 30 | 290 | 1.6 | 8.0 | 0.00 | 0.53 | 0.53 | 84 | 1014.5 |
| 20260901212024 | 30 | 313 | 1.6 | 8.0 | 0.00 | 0.53 | 0.53 | 84 | 1014.3 |
| 20260901211538 | 30 | 0 | 0.0 | 8.0 | 0.00 | 0.53 | 0.53 | 86 | 1014.3 |
| 20260901211022 | 30 | 341 | 1.6 | 8.0 | 0.00 | 0.53 | 0.53 | 84 | 1014.5 |
| 20260901210523 | 30 | 74 | 1.6 | 9.7 | 0.00 | 0.53 | 0.53 | 85 | 1014.4 |
| 20260901210040 | 30 | 341 | 1.6 | 12.9 | 0.00 | 0.53 | 0.53 | 84 | 1014.3 |
| 20260901205521 | 30 | 357 | 3.2 | 12.9 | 0.00 | 0.53 | 0.53 | 82 | 1014.4 |
| 20260901205019 | 30 | 342 | 3.2 | 11.3 | 0.00 | 0.53 | 0.53 | 81 | 1014.4 |
| 20260901204539 | 30 | 30 | 1.6 | 11.3 | 0.00 | 0.53 | 0.53 | 82 | 1014.4 |
| 20260901204019 | 30 | 75 | 1.6 | 11.3 | 0.00 | 0.53 | 0.53 | 81 | 1014.4 |
| 20260901203519 | 31 | 98 | 3.2 | 9.7 | 0.00 | 0.53 | 0.53 | 80 | 1014.6 |
| 20260901203049 | 31 | 60 | 0.0 | 9.7 | 0.00 | 0.53 | 0.53 | 79 | 1014.7 |
| 20260901202520 | 31 | 21 | 1.6 | 9.7 | 0.00 | 0.53 | 0.53 | 78 | 1014.7 |
| 20260901202030 | 32 | 320 | 1.6 | 9.7 | 0.00 | 0.53 | 0.53 | 77 | 1014.8 |
| 20260901201546 | 31 | 24 | 1.6 | 8.0 | 0.00 | 0.53 | 0.53 | 80 | 1014.7 |
| 20260901201021 | 31 | 0 | 1.6 | 9.7 | 0.00 | 0.53 | 0.53 | 82 | 1014.7 |
| 20260901200521 | 31 | 33 | 3.2 | 9.7 | 0.00 | 0.53 | 0.53 | 80 | 1014.8 |
| 20260901200040 | 30 | 0 | 0.0 | 6.4 | 0.00 | 0.53 | 0.53 | 81 | 1014.9 |
| 20260901195519 | 30 | 18 | 0.0 | 8.0 | 0.00 | 0.53 | 0.53 | 81 | 1014.9 |
| 20260901195022 | 30 | 0 | 3.2 | 8.0 | 0.00 | 0.53 | 0.53 | 80 | 1015.0 |
| 20260901194537 | 30 | 318 | 3.2 | 8.0 | 0.00 | 0.53 | 0.53 | 80 | 1015.0 |
| 20260901194023 | 30 | 0 | 0.0 | 8.0 | 0.00 | 0.53 | 0.53 | 80 | 1015.0 |
| 20260901193523 | 30 | 56 | 1.6 | 6.4 | 0.00 | 0.53 | 0.53 | 80 | 1014.9 |
| 20260901193038 | 30 | 60 | 0.0 | 6.4 | 0.00 | 0.53 | 0.53 | 82 | 1015.1 |
| 20260901192524 | 30 | 0 | 0.0 | 4.8 | 0.00 | 0.53 | 0.53 | 82 | 1015.2 |
| 20260901192028 | 31 | 0 | 0.0 | 8.0 | 0.00 | 0.53 | 0.53 | 82 | 1015.1 |
| 20260901191544 | 31 | 0 | 0.0 | 8.0 | 0.00 | 0.53 | 0.53 | 84 | 1015.1 |
| 20260901191019 | 31 | 46 | 0.0 | 8.0 | 0.00 | 0.53 | 0.53 | 80 | 1015.0 |
| 20260901190520 | 30 | 11 | 0.0 | 8.0 | 0.00 | 0.53 | 0.53 | 83 | 1015.1 |
| 20260901190044 | 30 | 29 | 1.6 | 6.4 | 0.00 | 0.53 | 0.53 | 82 | 1015.2 |
| 20260901185520 | 30 | 0 | 0.0 | 8.0 | 0.00 | 0.53 | 0.53 | 84 | 1015.2 |
| 20260901185020 | 30 | 0 | 0.0 | 8.0 | 0.00 | 0.53 | 0.53 | 87 | 1015.3 |
| 20260901184538 | 30 | 4 | 1.6 | 6.4 | 0.00 | 0.53 | 0.53 | 86 | 1015.4 |
| 20260901184019 | 29 | 0 | 0.0 | 1.6 | 0.00 | 0.53 | 0.53 | 89 | 1015.3 |
| 20260901183522 | 29 | 0 | 0.0 | 1.6 | 0.00 | 0.53 | 0.53 | 90 | 1015.3 |
| 20260901183039 | 29 | 0 | 0.0 | 1.6 | 0.00 | 0.53 | 0.53 | 93 | 1015.3 |
| 20260901182519 | 28 | 0 | 0.0 | 0.0 | 0.00 | 0.53 | 0.53 | 96 | 1015.4 |
| 20260901182024 | 28 | 0 | 0.0 | 0.0 | 0.00 | 0.53 | 0.53 | 96 | 1015.5 |
| 20260901181540 | 28 | 0 | 0.0 | 1.6 | 0.00 | 0.53 | 0.53 | 96 | 1015.5 |
| 20260901181020 | 28 | 0 | 0.0 | 1.6 | 0.00 | 0.53 | 0.53 | 98 | 1015.5 |
| 20260901180521 | 28 | 0 | 0.0 | 1.6 | 0.00 | 0.53 | 0.53 | 97 | 1015.6 |
| 20260901180037 | 28 | 0 | 0.0 | 1.6 | 0.00 | 0.53 | 0.53 | 98 | 1015.8 |
| 20260901175521 | 27 | 0 | 0.0 | 1.6 | 0.00 | 0.53 | 0.53 | 99 | 1015.9 |
| 20260901175020 | 27 | 0 | 0.0 | 0.0 | 0.00 | 0.53 | 0.53 | 98 | 1016.0 |
| 20260901174540 | 27 | 0 | 0.0 | 0.0 | 0.00 | 0.53 | 0.53 | 100 | 1016.1 |
| 20260901174024 | 27 | 0 | 0.0 | 0.0 | 0.00 | 0.53 | 0.53 | 100 | 1016.2 |
| 20260901173519 | 27 | 0 | 0.0 | 0.0 | 0.00 | 0.53 | 0.53 | 100 | 1016.2 |
| 20260901173036 | 27 | 0 | 0.0 | 3.2 | 0.00 | 0.53 | 0.53 | 100 | 1016.2 |
| 20260901172516 | 27 | 0 | 0.0 | 3.2 | 0.00 | 0.53 | 0.53 | 100 | 1016.3 |
| 20260901172025 | 27 | 0 | 0.0 | 3.2 | 0.00 | 0.53 | 0.53 | 100 | 1016.4 |
| 20260901171539 | 27 | 0 | 0.0 | 0.0 | 0.48 | 0.53 | 0.53 | 100 | 1016.3 |
| 20260901171023 | 27 | 0 | 0.0 | 1.6 | 0.48 | 0.53 | 0.53 | 100 | 1016.4 |
| 20260901170524 | 27 | 0 | 0.0 | 1.6 | 0.48 | 0.53 | 0.53 | 100 | 1016.4 |
| 20260901170041 | 27 | 0 | 0.0 | 0.0 | 0.48 | 0.53 | 0.53 | 100 | 1016.4 |
| 20260901165520 | 27 | 0 | 0.0 | 0.0 | 0.48 | 0.58 | 0.53 | 100 | 1016.4 |
| 20260901165020 | 27 | 0 | 0.0 | 0.0 | 0.48 | 0.58 | 0.53 | 100 | 1016.5 |
| 20260901164540 | 27 | 0 | 0.0 | 0.0 | 0.48 | 0.58 | 0.53 | 99 | 1016.4 |
| 20260901164018 | 27 | 0 | 0.0 | 0.0 | 0.48 | 0.58 | 0.53 | 98 | 1016.5 |
| 20260901163519 | 27 | 0 | 0.0 | 0.0 | 0.48 | 0.58 | 0.53 | 98 | 1016.6 |
| 20260901163039 | 27 | 0 | 0.0 | 4.8 | 0.51 | 0.58 | 0.53 | 96 | 1016.6 |
| 20260901162518 | 27 | 0 | 0.0 | 4.8 | 0.53 | 0.58 | 0.53 | 93 | 1016.6 |
| 20260901162020 | 29 | 239 | 0.0 | 4.8 | 0.51 | 0.56 | 0.51 | 87 | 1016.6 |
| 20260901161544 | 30 | 346 | 0.0 | 4.8 | 0.05 | 0.10 | 0.05 | 82 | 1016.7 |
| 20260901161023 | 31 | 0 | 0.0 | 1.6 | 0.05 | 0.10 | 0.05 | 82 | 1016.7 |
| 20260901160522 | 31 | 0 | 0.0 | 6.4 | 0.05 | 0.10 | 0.05 | 80 | 1016.7 |
| 20260901160051 | 31 | 0 | 0.0 | 6.4 | 0.05 | 0.10 | 0.05 | 86 | 1016.8 |
| 20260901155520 | 31 | 302 | 0.0 | 4.8 | 0.05 | 0.10 | 0.05 | 86 | 1016.8 |
| 20260901155022 | 31 | 0 | 0.0 | 4.8 | 0.05 | 0.10 | 0.05 | 89 | 1016.7 |
| 20260901154539 | 30 | 0 | 0.0 | 1.6 | 0.05 | 0.10 | 0.05 | 89 | 1016.7 |
| 20260901154019 | 30 | 0 | 0.0 | 0.0 | 0.05 | 0.10 | 0.05 | 91 | 1016.8 |
| 20260901153519 | 30 | 0 | 0.0 | 4.8 | 0.05 | 0.10 | 0.05 | 88 | 1016.8 |
| 20260901153041 | 31 | 0 | 0.0 | 4.8 | 0.03 | 0.08 | 0.03 | 83 | 1016.9 |
| 20260901152523 | 31 | 0 | 0.0 | 4.8 | 0.00 | 0.05 | 0.00 | 79 | 1016.8 |
| 20260901152020 | 31 | 0 | 0.0 | 1.6 | 0.00 | 0.05 | 0.00 | 78 | 1016.8 |
| 20260901151535 | 31 | 259 | 0.0 | 1.6 | 0.00 | 0.05 | 0.00 | 80 | 1016.7 |
| 20260901151024 | 31 | 0 | 0.0 | 3.2 | 0.00 | 0.05 | 0.00 | 83 | 1016.8 |
| 20260901150519 | 31 | 0 | 0.0 | 3.2 | 0.00 | 0.05 | 0.00 | 82 | 1016.7 |
| 20260901150039 | 30 | 0 | 0.0 | 3.2 | 0.00 | 0.05 | 0.00 | 83 | 1016.7 |
| 20260901145520 | 30 | 0 | 0.0 | 1.6 | 0.00 | 0.05 | 0.00 | 84 | 1016.7 |
| 20260901145021 | 30 | 0 | 0.0 | 1.6 | 0.00 | 0.05 | 0.00 | 84 | 1016.7 |
| 20260901144540 | 30 | 0 | 0.0 | 1.6 | 0.00 | 0.05 | 0.00 | 86 | 1016.7 |
| 20260901144019 | 30 | 0 | 0.0 | 1.6 | 0.00 | 0.05 | 0.00 | 86 | 1016.7 |
| 20260901143519 | 29 | 0 | 0.0 | 1.6 | 0.00 | 0.05 | 0.00 | 86 | 1016.7 |
| 20260901143036 | 30 | 0 | 0.0 | 3.2 | 0.00 | 0.05 | 0.00 | 87 | 1016.7 |
| 20260901142521 | 29 | 0 | 0.0 | 3.2 | 0.00 | 0.05 | 0.00 | 89 | 1016.6 |
| 20260901142023 | 28 | 20 | 0.0 | 3.2 | 0.00 | 0.05 | 0.00 | 89 | 1016.5 |
| 20260901141537 | 28 | 0 | 0.0 | 0.0 | 0.00 | 0.05 | 0.00 | 91 | 1016.5 |
| 20260901141021 | 28 | 0 | 0.0 | 0.0 | 0.00 | 0.05 | 0.00 | 90 | 1016.5 |
| 20260901140520 | 28 | 0 | 0.0 | 1.6 | 0.00 | 0.05 | 0.00 | 91 | 1016.5 |
| 20260901140040 | 28 | 0 | 0.0 | 1.6 | 0.00 | 0.05 | 0.00 | 92 | 1016.5 |
| 20260901135522 | 28 | 0 | 0.0 | 1.6 | 0.00 | 0.05 | 0.00 | 92 | 1016.5 |
| 20260901135019 | 28 | 0 | 0.0 | 3.2 | 0.00 | 0.05 | 0.00 | 94 | 1016.5 |
| 20260901134558 | 27 | 0 | 0.0 | 3.2 | 0.00 | 0.05 | 0.00 | 94 | 1016.4 |
| 20260901134017 | 27 | 0 | 0.0 | 0.0 | 0.00 | 0.05 | 0.00 | 97 | 1016.4 |
| 20260901133521 | 27 | 0 | 0.0 | 1.6 | 0.00 | 0.05 | 0.00 | 99 | 1016.4 |
| 20260901133035 | 26 | 0 | 0.0 | 1.6 | 0.00 | 0.05 | 0.00 | 100 | 1016.4 |
| 20260901132520 | 26 | 342 | 0.0 | 1.6 | 0.00 | 0.05 | 0.00 | 100 | 1016.4 |
| 20260901132020 | 26 | 0 | 0.0 | 0.0 | 0.00 | 0.05 | 0.00 | 100 | 1016.3 |
| 20260901131536 | 26 | 0 | 0.0 | 0.0 | 0.00 | 0.05 | 0.00 | 100 | 1016.3 |
| 20260901131021 | 25 | 0 | 0.0 | 0.0 | 0.00 | 0.05 | 0.00 | 100 | 1016.3 |
| 20260901130525 | 25 | 0 | 0.0 | 0.0 | 0.00 | 0.05 | 0.00 | 100 | 1016.3 |
| 20260901130039 | 25 | 0 | 0.0 | 0.0 | 0.00 | 0.05 | 0.00 | 100 | 1016.3 |
| 20260901125520 | 24 | 0 | 0.0 | 0.0 | 0.00 | 0.05 | 0.00 | 100 | 1016.2 |
| 20260901125019 | 24 | 0 | 0.0 | 0.0 | 0.00 | 0.05 | 0.00 | 100 | 1016.3 |
| 20260901124545 | 24 | 0 | 0.0 | 0.0 | 0.00 | 0.05 | 0.00 | 100 | 1016.3 |
| 20260901124020 | 24 | 0 | 0.0 | 0.0 | 0.00 | 0.05 | 0.00 | 100 | 1016.4 |
| 20260901123520 | 24 | 0 | 0.0 | 0.0 | 0.00 | 0.05 | 0.00 | 100 | 1016.3 |
| 20260901123036 | 24 | 0 | 0.0 | 0.0 | 0.00 | 0.05 | 0.00 | 100 | 1016.3 |
| 20260901122521 | 23 | 0 | 0.0 | 0.0 | 0.00 | 0.05 | 0.00 | 100 | 1016.3 |
| 20260901122020 | 23 | 0 | 0.0 | 0.0 | 0.00 | 0.05 | 0.00 | 100 | 1016.2 |
| 20260901121536 | 23 | 0 | 0.0 | 0.0 | 0.00 | 0.05 | 0.00 | 100 | 1016.2 |
| 20260901121021 | 23 | 0 | 0.0 | 0.0 | 0.00 | 0.05 | 0.00 | 100 | 1016.1 |
| 20260901120523 | 23 | 0 | 0.0 | 0.0 | 0.00 | 0.05 | 0.00 | 100 | 1016.1 |
| 20260901120055 | 23 | 0 | 0.0 | 0.0 | 0.00 | 0.05 | 0.00 | 100 | 1016.0 |
| 20260901115521 | 23 | 0 | 0.0 | 0.0 | 0.00 | 0.05 | 0.00 | 100 | 1016.0 |
| 20260901115023 | 23 | 0 | 0.0 | 0.0 | 0.00 | 0.05 | 0.00 | 100 | 1015.9 |
| 20260901114540 | 23 | 0 | 0.0 | 0.0 | 0.00 | 0.05 | 0.00 | 100 | 1015.8 |
| 20260901114020 | 23 | 0 | 0.0 | 0.0 | 0.00 | 0.05 | 0.00 | 100 | 1015.8 |
| 20260901113521 | 23 | 0 | 0.0 | 0.0 | 0.00 | 0.05 | 0.00 | 100 | 1015.8 |
| 20260901113103 | 23 | 0 | 0.0 | 0.0 | 0.00 | 0.05 | 0.00 | 100 | 1015.7 |
| 20260901112516 | 22 | 0 | 0.0 | 0.0 | 0.00 | 0.05 | 0.00 | 100 | 1015.7 |
| 20260901112021 | 23 | 0 | 0.0 | 0.0 | 0.00 | 0.05 | 0.00 | 100 | 1015.6 |
| 20260901111540 | 22 | 0 | 0.0 | 0.0 | 0.00 | 0.05 | 0.00 | 100 | 1015.5 |
| 20260901111021 | 22 | 0 | 0.0 | 0.0 | 0.00 | 0.05 | 0.00 | 100 | 1015.4 |
| 20260901110524 | 22 | 0 | 0.0 | 0.0 | 0.00 | 0.05 | 0.00 | 100 | 1015.3 |
| 20260901110058 | 22 | 0 | 0.0 | 0.0 | 0.00 | 0.05 | 0.00 | 100 | 1015.2 |
| 20260901105521 | 22 | 0 | 0.0 | 0.0 | 0.00 | 0.05 | 0.00 | 100 | 1015.2 |
| 20260901105020 | 22 | 0 | 0.0 | 0.0 | 0.00 | 0.05 | 0.00 | 100 | 1015.2 |
| 20260901104544 | 22 | 0 | 0.0 | 0.0 | 0.00 | 0.05 | 0.00 | 100 | 1015.1 |
| 20260901104023 | 22 | 0 | 0.0 | 0.0 | 0.00 | 0.05 | 0.00 | 100 | 1015.1 |
| 20260901103520 | 22 | 0 | 0.0 | 0.0 | 0.00 | 0.05 | 0.00 | 100 | 1015.2 |
| 20260901103039 | 22 | 0 | 0.0 | 0.0 | 0.00 | 0.05 | 0.00 | 100 | 1015.0 |
| 20260901102524 | 22 | 0 | 0.0 | 0.0 | 0.00 | 0.05 | 0.00 | 100 | 1015.1 |
| 20260901102022 | 22 | 0 | 0.0 | 0.0 | 0.00 | 0.05 | 0.00 | 100 | 1015.0 |
| 20260901101602 | 22 | 0 | 0.0 | 0.0 | 0.00 | 0.05 | 0.00 | 100 | 1015.0 |
| 20260901101020 | 22 | 0 | 0.0 | 0.0 | 0.00 | 0.05 | 0.00 | 100 | 1015.0 |
| 20260901100521 | 22 | 0 | 0.0 | 0.0 | 0.00 | 0.05 | 0.00 | 100 | 1015.0 |
| 20260901100054 | 22 | 0 | 0.0 | 0.0 | 0.00 | 0.05 | 0.00 | 100 | 1015.0 |
| 20260901095520 | 22 | 0 | 0.0 | 0.0 | 0.00 | 0.05 | 0.00 | 100 | 1015.0 |
| 20260901095020 | 23 | 0 | 0.0 | 0.0 | 0.00 | 0.05 | 0.00 | 100 | 1014.9 |
| 20260901094541 | 23 | 0 | 0.0 | 0.0 | 0.00 | 0.05 | 0.00 | 100 | 1014.9 |
| 20260901094019 | 23 | 0 | 0.0 | 0.0 | 0.00 | 0.05 | 0.00 | 100 | 1015.0 |
| 20260901093519 | 23 | 0 | 0.0 | 0.0 | 0.00 | 0.05 | 0.00 | 100 | 1014.9 |
| 20260901093041 | 23 | 0 | 0.0 | 0.0 | 0.00 | 0.05 | 0.00 | 100 | 1014.9 |
| 20260901092521 | 23 | 0 | 0.0 | 0.0 | 0.00 | 0.05 | 0.00 | 100 | 1014.8 |
| 20260901092023 | 23 | 0 | 0.0 | 0.0 | 0.00 | 0.05 | 0.00 | 100 | 1014.8 |
| 20260901091541 | 23 | 0 | 0.0 | 0.0 | 0.00 | 0.05 | 0.00 | 100 | 1014.8 |
| 20260901091019 | 23 | 0 | 0.0 | 0.0 | 0.00 | 0.05 | 0.00 | 100 | 1014.7 |
| 20260901090520 | 23 | 0 | 0.0 | 0.0 | 0.00 | 0.05 | 0.00 | 100 | 1014.6 |
| 20260901090040 | 23 | 0 | 0.0 | 0.0 | 0.00 | 0.05 | 0.00 | 100 | 1014.6 |
| 20260901085519 | 23 | 0 | 0.0 | 0.0 | 0.00 | 0.05 | 0.00 | 100 | 1014.7 |
| 20260901085020 | 23 | 0 | 0.0 | 0.0 | 0.00 | 0.05 | 0.00 | 100 | 1014.7 |
| 20260901084544 | 23 | 0 | 0.0 | 0.0 | 0.00 | 0.05 | 0.00 | 100 | 1014.7 |
| 20260901084023 | 23 | 0 | 0.0 | 0.0 | 0.00 | 0.05 | 0.00 | 100 | 1014.8 |
| 20260901083521 | 23 | 0 | 0.0 | 0.0 | 0.00 | 0.05 | 0.00 | 100 | 1014.8 |
| 20260901083041 | 23 | 0 | 0.0 | 0.0 | 0.00 | 0.05 | 0.00 | 100 | 1014.9 |
| 20260901082521 | 23 | 0 | 0.0 | 0.0 | 0.00 | 0.05 | 0.00 | 100 | 1014.8 |
| 20260901082020 | 23 | 0 | 0.0 | 0.0 | 0.00 | 0.05 | 0.00 | 100 | 1014.8 |
| 20260901081543 | 23 | 0 | 0.0 | 0.0 | 0.00 | 0.05 | 0.00 | 100 | 1014.8 |
| 20260901081021 | 23 | 0 | 0.0 | 0.0 | 0.00 | 0.05 | 0.00 | 100 | 1014.8 |
| 20260901080520 | 23 | 0 | 0.0 | 0.0 | 0.00 | 0.05 | 0.00 | 100 | 1014.7 |
| 20260901080044 | 23 | 0 | 0.0 | 0.0 | 0.00 | 0.05 | 0.00 | 100 | 1014.7 |
| 20260901075522 | 23 | 0 | 0.0 | 0.0 | 0.00 | 0.05 | 0.00 | 100 | 1014.8 |
| 20260901075022 | 23 | 0 | 0.0 | 0.0 | 0.00 | 0.05 | 0.00 | 100 | 1014.9 |
| 20260901074539 | 23 | 0 | 0.0 | 0.0 | 0.00 | 0.05 | 0.00 | 100 | 1014.9 |
| 20260901074018 | 23 | 0 | 0.0 | 0.0 | 0.00 | 0.05 | 0.00 | 100 | 1014.9 |
| 20260901073518 | 23 | 0 | 0.0 | 0.0 | 0.00 | 0.05 | 0.00 | 100 | 1014.9 |
| 20260901073040 | 23 | 0 | 0.0 | 0.0 | 0.00 | 0.05 | 0.00 | 100 | 1015.0 |
| 20260901072523 | 23 | 0 | 0.0 | 0.0 | 0.00 | 0.05 | 0.00 | 100 | 1015.1 |
| 20260901072020 | 23 | 0 | 0.0 | 0.0 | 0.00 | 0.05 | 0.00 | 100 | 1015.1 |
| 20260901071536 | 23 | 0 | 0.0 | 0.0 | 0.00 | 0.05 | 0.00 | 100 | 1015.1 |
| 20260901071023 | 23 | 0 | 0.0 | 0.0 | 0.00 | 0.05 | 0.00 | 100 | 1015.1 |
| 20260901070521 | 23 | 0 | 0.0 | 0.0 | 0.00 | 0.05 | 0.00 | 100 | 1015.1 |
| 20260901070044 | 23 | 0 | 0.0 | 0.0 | 0.00 | 0.05 | 0.00 | 100 | 1015.1 |
| 20260901065519 | 23 | 0 | 0.0 | 0.0 | 0.00 | 0.05 | 0.00 | 100 | 1015.1 |
| 20260901065019 | 23 | 0 | 0.0 | 0.0 | 0.00 | 0.05 | 0.00 | 100 | 1015.1 |
| 20260901064539 | 23 | 0 | 0.0 | 0.0 | 0.00 | 0.05 | 0.00 | 100 | 1015.2 |
| 20260901064018 | 23 | 0 | 0.0 | 0.0 | 0.00 | 0.05 | 0.00 | 100 | 1015.2 |
| 20260901063519 | 23 | 0 | 0.0 | 0.0 | 0.00 | 0.05 | 0.00 | 100 | 1015.2 |
| 20260901063045 | 23 | 0 | 0.0 | 0.0 | 0.00 | 0.05 | 0.00 | 100 | 1015.3 |
| 20260901062526 | 23 | 0 | 0.0 | 0.0 | 0.00 | 0.05 | 0.00 | 100 | 1015.3 |
| 20260901062031 | 23 | 0 | 0.0 | 0.0 | 0.00 | 0.05 | 0.00 | 100 | 1015.4 |
| 20260901061537 | 23 | 0 | 0.0 | 0.0 | 0.00 | 0.05 | 0.00 | 100 | 1015.5 |
| 20260901061020 | 23 | 0 | 0.0 | 0.0 | 0.00 | 0.05 | 0.00 | 100 | 1015.5 |
| 20260901060521 | 23 | 0 | 0.0 | 0.0 | 0.00 | 0.05 | 0.00 | 100 | 1015.4 |
| 20260901060035 | 23 | 0 | 0.0 | 0.0 | 0.00 | 0.05 | 0.00 | 100 | 1015.6 |
| 20260901055520 | 23 | 0 | 0.0 | 0.0 | 0.00 | 0.05 | 0.00 | 100 | 1015.7 |
| 20260901055027 | 23 | 0 | 0.0 | 0.0 | 0.00 | 0.05 | 0.00 | 100 | 1015.8 |
| 20260901054540 | 23 | 0 | 0.0 | 0.0 | 0.00 | 0.05 | 0.00 | 100 | 1015.8 |
| 20260901054024 | 23 | 0 | 0.0 | 0.0 | 0.00 | 0.05 | 0.00 | 100 | 1015.9 |
| 20260901053520 | 23 | 0 | 0.0 | 0.0 | 0.00 | 0.05 | 0.00 | 100 | 1015.9 |
| 20260901053102 | 23 | 0 | 0.0 | 0.0 | 0.00 | 0.05 | 0.00 | 100 | 1015.9 |
| 20260901052521 | 23 | 0 | 0.0 | 0.0 | 0.00 | 0.05 | 0.00 | 100 | 1015.9 |
| 20260901052021 | 23 | 0 | 0.0 | 0.0 | 0.00 | 0.05 | 0.00 | 100 | 1016.0 |
| 20260901051535 | 23 | 0 | 0.0 | 0.0 | 0.00 | 0.05 | 0.00 | 100 | 1016.0 |
| 20260901051018 | 23 | 0 | 0.0 | 0.0 | 0.00 | 0.05 | 0.00 | 100 | 1016.1 |